Location: *
(1.3500°S, 147.5000°W)
Time: 16:59:25
(UTC+00:00)

Cosmos 1726 Rocket - Pass Details

Date: 07 April 2020
Orbit: 602 x 630 km, 82.5° (Epoch: 26 May)

Event Time Altitude Azimuth Distance (km) Brightness Sun altitude
Rises 05:12:59 0° 183° (S) 2,863 6.9 -20.2°
Reaches altitude 10° 05:15:11 10° 183° (S) 1,961 6.1 -20.8°
Maximum altitude 05:19:32 86° 94° (E) 617 3.4 -21.9°
Drops below altitude 10° 05:23:54 10° 5° (N) 1,968 6.1 -22.9°
Sets 05:26:07 0° 5° (N) 2,875 7.0 -23.5°
